Date,TemperatureHighF,TemperatureAvgF,TemperatureLowF,DewpointHighF,DewpointAvgF,DewpointLowF,HumidityHigh,HumidityAvg,HumidityLow,PressureMaxIn,PressureMinIn,WindSpeedMaxMPH,WindSpeedAvgMPH,GustSpeedMaxMPH,PrecipitationSumIn
2014-1-1,0.0,0.0,0.0,0.0,0.0,0.0,0,0,100,29.85,29.71,0,0,0,0.00
2014-1-2,0.0,0.0,0.0,0.0,0.0,0.0,0,0,100,29.85,29.74,0,0,0,0.00
2014-1-3,0.0,0.0,0.0,0.0,0.0,0.0,0,0,100,29.76,29.68,0,0,0,0.00
2014-1-4,0.0,0.0,0.0,0.0,0.0,0.0,0,0,100,29.68,29.56,0,0,0,0.00
2014-1-5,0.0,0.0,0.0,0.0,0.0,0.0,0,0,100,29.62,29.50,0,0,0,0.00
2014-1-6,0.0,0.0,0.0,0.0,0.0,0.0,0,0,100,29.71,29.59,0,0,0,0.00
2014-1-7,0.0,0.0,0.0,0.0,0.0,0.0,0,0,100,29.76,29.68,0,0,0,0.00
2014-1-8,0.0,0.0,0.0,0.0,0.0,0.0,0,0,100,29.74,29.62,0,0,0,0.00
2014-1-9,0.0,0.0,0.0,0.0,0.0,0.0,0,0,100,29.74,29.62,0,0,0,0.00
2014-1-10,0.0,0.0,0.0,0.0,0.0,0.0,0,0,100,29.97,29.74,0,0,0,0.00
2014-1-11,0.0,0.0,0.0,0.0,0.0,0.0,0,0,100,29.97,29.88,0,0,0,0.00
2014-1-12,0.0,0.0,0.0,0.0,0.0,0.0,0,0,100,29.94,29.88,0,0,0,0.00
2014-1-13,0.0,0.0,0.0,0.0,0.0,0.0,0,0,100,30.03,30.00,0,0,0,0.00
2014-1-14,0.0,0.0,0.0,0.0,0.0,0.0,0,0,100,30.00,29.65,0,0,0,0.00
2014-1-15,0.0,0.0,0.0,0.0,0.0,0.0,0,0,100,29.94,29.62,0,0,0,0.00
2014-1-16,0.0,0.0,0.0,0.0,0.0,0.0,0,0,100,30.00,29.88,0,0,0,0.00
2014-1-17,0.0,0.0,0.0,0.0,0.0,0.0,0,0,100,30.00,29.91,0,0,0,0.00
2014-1-18,0.0,0.0,0.0,0.0,0.0,0.0,0,0,100,30.00,29.91,0,0,0,0.00
2014-1-19,0.0,0.0,0.0,0.0,0.0,0.0,0,0,100,29.97,29.88,0,0,0,0.00
2014-1-20,0.0,0.0,0.0,0.0,0.0,0.0,0,0,100,30.03,29.91,0,0,0,0.00
2014-1-21,0.0,0.0,0.0,0.0,0.0,0.0,0,0,100,30.03,29.85,0,0,0,0.00
2014-1-22,0.0,0.0,0.0,0.0,0.0,0.0,0,0,100,29.85,29.62,0,0,0,0.00
2014-1-23,0.0,0.0,0.0,0.0,0.0,0.0,0,0,100,29.76,29.65,0,0,0,0.00
2014-1-24,0.0,0.0,0.0,0.0,0.0,0.0,0,0,100,29.88,29.65,0,0,0,0.00
2014-1-25,0.0,0.0,0.0,0.0,0.0,0.0,0,0,100,29.94,29.88,0,0,0,0.00
2014-1-26,0.0,0.0,0.0,0.0,0.0,0.0,0,0,100,29.91,29.82,0,0,0,0.00
2014-1-27,0.0,0.0,0.0,0.0,0.0,0.0,0,0,100,29.82,29.71,0,0,0,0.00
2014-1-28,0.0,0.0,0.0,0.0,0.0,0.0,0,0,100,29.79,29.71,0,0,0,0.00
2014-1-29,0.0,0.0,0.0,0.0,0.0,0.0,0,0,100,29.88,29.65,0,0,0,0.00
2014-1-30,0.0,0.0,0.0,0.0,0.0,0.0,0,0,100,29.94,29.85,0,0,0,0.00
2014-1-31,0.0,0.0,0.0,0.0,0.0,0.0,0,0,100,29.94,29.65,0,0,0,0.00
2014-2-1,0.0,0.0,0.0,0.0,0.0,0.0,0,0,100,29.85,29.59,0,0,0,0.00
2014-2-2,0.0,0.0,0.0,0.0,0.0,0.0,0,0,100,29.94,29.85,0,0,0,0.00
2014-2-3,0.0,0.0,0.0,0.0,0.0,0.0,0,0,100,29.94,29.71,0,0,0,0.00
2014-2-4,0.0,0.0,0.0,0.0,0.0,0.0,0,0,100,29.74,29.59,0,0,0,0.00
2014-2-5,0.0,0.0,0.0,0.0,0.0,0.0,0,0,100,29.82,29.68,0,0,0,0.00
2014-2-6,0.0,0.0,0.0,0.0,0.0,0.0,0,0,100,29.79,29.74,0,0,0,0.00
2014-2-7,0.0,0.0,0.0,0.0,0.0,0.0,0,0,100,29.76,29.59,0,0,0,0.00
2014-2-8,0.0,0.0,0.0,0.0,0.0,0.0,0,0,100,29.82,29.74,0,0,0,0.00
2014-2-9,0.0,0.0,0.0,0.0,0.0,0.0,0,0,100,29.82,29.79,0,0,0,0.00
2014-2-10,0.0,0.0,0.0,0.0,0.0,0.0,0,0,100,29.82,29.74,0,0,0,0.00
2014-2-11,0.0,0.0,0.0,0.0,0.0,0.0,0,0,100,29.82,29.74,0,0,0,0.00
2014-2-12,0.0,0.0,0.0,0.0,0.0,0.0,0,0,100,29.82,29.74,0,0,0,0.00
2014-2-13,0.0,0.0,0.0,0.0,0.0,0.0,0,0,100,30.03,29.76,0,0,0,0.00
2014-2-14,0.0,0.0,0.0,0.0,0.0,0.0,0,0,100,30.03,29.94,0,0,0,0.00
2014-2-15,0.0,0.0,0.0,0.0,0.0,0.0,0,0,100,30.00,29.82,0,0,0,0.00
2014-2-16,0.0,0.0,0.0,0.0,0.0,0.0,0,0,100,29.91,29.74,0,0,0,0.00
2014-2-17,0.0,0.0,0.0,0.0,0.0,0.0,0,0,100,29.82,29.65,0,0,0,0.00
2014-2-18,0.0,0.0,0.0,0.0,0.0,0.0,0,0,100,29.94,29.82,0,0,0,0.00
2014-2-19,0.0,0.0,0.0,0.0,0.0,0.0,0,0,100,29.91,29.59,0,0,0,0.00
2014-2-20,0.0,0.0,0.0,0.0,0.0,0.0,0,0,100,29.97,29.74,0,0,0,0.00
2014-2-21,0.0,0.0,0.0,0.0,0.0,0.0,0,0,100,30.03,29.94,0,0,0,0.00
2014-2-22,0.0,0.0,0.0,0.0,0.0,0.0,0,0,100,29.97,29.85,0,0,0,0.00
2014-2-23,0.0,0.0,0.0,0.0,0.0,0.0,0,0,100,29.94,29.85,0,0,0,0.00
2014-2-24,0.0,0.0,0.0,0.0,0.0,0.0,0,0,100,29.97,29.85,0,0,0,0.00
2014-2-25,0.0,0.0,0.0,0.0,0.0,0.0,0,0,100,30.03,29.91,0,0,0,0.00
2014-2-26,0.0,0.0,0.0,0.0,0.0,0.0,0,0,100,30.00,29.74,0,0,0,0.00
2014-2-27,0.0,0.0,0.0,0.0,0.0,0.0,0,0,100,29.76,29.65,0,0,0,0.00
2014-2-28,0.0,0.0,0.0,0.0,0.0,0.0,0,0,100,29.85,29.68,0,0,0,0.00
2014-3-1,0.0,0.0,0.0,0.0,0.0,0.0,0,0,100,29.94,29.68,0,0,0,0.00
2014-3-2,0.0,0.0,0.0,0.0,0.0,0.0,0,0,100,29.88,29.65,0,0,0,0.00
2014-3-3,0.0,0.0,0.0,0.0,0.0,0.0,0,0,100,29.97,29.85,0,0,0,0.00
2014-3-4,0.0,0.0,0.0,0.0,0.0,0.0,0,0,100,29.97,29.88,0,0,0,0.00
2014-3-5,0.0,0.0,0.0,0.0,0.0,0.0,0,0,100,30.06,29.88,0,0,0,0.00
2014-3-6,0.0,0.0,0.0,0.0,0.0,0.0,0,0,100,30.03,29.14,0,0,0,0.00
2014-3-7,0.0,0.0,0.0,0.0,0.0,0.0,0,0,100,29.29,29.20,0,0,0,0.00
2014-3-8,0.0,0.0,0.0,0.0,0.0,0.0,0,0,100,29.41,29.23,0,0,0,0.00
2014-3-9,0.0,0.0,0.0,0.0,0.0,0.0,0,0,100,29.50,29.35,0,0,0,0.00
2014-3-10,0.0,0.0,0.0,0.0,0.0,0.0,0,0,100,29.47,29.23,0,0,0,0.00
2014-3-11,0.0,0.0,0.0,0.0,0.0,0.0,0,0,100,29.26,29.17,0,0,0,0.00
2014-3-12,0.0,0.0,0.0,0.0,0.0,0.0,0,0,100,29.59,29.23,0,0,0,0.00
2014-3-13,0.0,0.0,0.0,0.0,0.0,0.0,0,0,100,29.56,29.35,0,0,0,0.00
2014-3-14,0.0,0.0,0.0,0.0,0.0,0.0,0,0,100,29.94,29.26,0,0,0,0.00
2014-3-15,0.0,0.0,0.0,0.0,0.0,0.0,0,0,100,29.35,29.26,0,0,0,0.00
2014-3-16,0.0,0.0,0.0,0.0,0.0,0.0,0,0,100,29.38,29.26,0,0,0,0.00
2014-3-17,0.0,0.0,0.0,0.0,0.0,0.0,0,0,100,29.41,29.32,0,0,0,0.00
2014-3-18,0.0,0.0,0.0,0.0,0.0,0.0,0,0,100,29.38,29.14,0,0,0,0.00
2014-3-19,0.0,0.0,0.0,0.0,0.0,0.0,0,0,100,29.35,29.17,0,0,0,0.00
2014-3-20,0.0,0.0,0.0,0.0,0.0,0.0,0,0,100,30.09,29.32,0,0,0,0.00
2014-3-21,0.0,0.0,0.0,0.0,0.0,0.0,0,0,100,30.03,29.29,0,0,0,0.00
2014-3-22,0.0,0.0,0.0,0.0,0.0,0.0,0,0,100,29.74,29.50,0,0,0,0.00
2014-3-23,0.0,0.0,0.0,0.0,0.0,0.0,0,0,100,30.06,29.44,0,0,0,0.00
2014-3-24,0.0,0.0,0.0,0.0,0.0,0.0,0,0,100,29.82,29.71,0,0,0,0.00
2014-3-25,0.0,0.0,0.0,0.0,0.0,0.0,0,0,100,29.82,29.17,0,0,0,0.00
2014-3-26,0.0,0.0,0.0,0.0,0.0,0.0,0,0,100,29.94,29.68,0,0,0,0.00
2014-3-27,0.0,0.0,0.0,0.0,0.0,0.0,0,0,100,30.65,29.94,0,0,0,0.00
2014-3-28,0.0,0.0,0.0,0.0,0.0,0.0,0,0,100,30.68,29.82,0,0,0,0.00
2014-3-29,0.0,0.0,0.0,0.0,0.0,0.0,0,0,100,29.88,29.74,0,0,0,0.00
2014-3-30,0.0,0.0,0.0,0.0,0.0,0.0,0,0,100,29.94,29.88,0,0,0,0.00
2014-3-31,0.0,0.0,0.0,0.0,0.0,0.0,0,0,100,29.88,29.76,0,0,0,0.00
2014-4-1,0.0,0.0,0.0,0.0,0.0,0.0,0,0,100,29.76,29.68,0,0,0,0.00
2014-4-2,0.0,0.0,0.0,0.0,0.0,0.0,0,0,100,30.62,29.65,0,0,0,0.00
2014-4-3,0.0,0.0,0.0,0.0,0.0,0.0,0,0,100,30.92,30.62,0,0,0,0.00
2014-4-4,0.0,0.0,0.0,0.0,0.0,0.0,0,0,100,29.65,29.59,0,0,0,0.00
2014-4-5,0.0,0.0,0.0,0.0,0.0,0.0,0,0,100,29.65,29.53,0,0,0,0.00
2014-4-6,0.0,0.0,0.0,0.0,0.0,0.0,0,0,100,30.06,29.47,0,0,0,0.00
2014-4-7,0.0,0.0,0.0,0.0,0.0,0.0,0,0,100,30.00,29.88,0,0,0,0.00
2014-4-8,0.0,0.0,0.0,0.0,0.0,0.0,0,0,100,30.03,29.97,0,0,0,0.00
2014-4-9,0.0,0.0,0.0,0.0,0.0,0.0,0,0,100,30.06,29.97,0,0,0,0.00
2014-4-10,0.0,0.0,0.0,0.0,0.0,0.0,0,0,100,30.03,30.00,0,0,0,0.00
2014-4-11,0.0,0.0,0.0,0.0,0.0,0.0,0,0,100,30.06,29.97,0,0,0,0.00
2014-4-12,0.0,0.0,0.0,0.0,0.0,0.0,0,0,100,30.06,30.00,0,0,0,0.00
2014-4-13,0.0,0.0,0.0,0.0,0.0,0.0,0,0,100,30.00,29.82,0,0,0,0.00
2014-4-14,0.0,0.0,0.0,0.0,0.0,0.0,0,0,100,30.06,29.82,0,0,0,0.00
2014-4-15,0.0,0.0,0.0,0.0,0.0,0.0,0,0,100,30.18,30.06,0,0,0,0.00
2014-4-16,0.0,0.0,0.0,0.0,0.0,0.0,0,0,100,30.18,30.03,0,0,0,0.00
2014-4-17,0.0,0.0,0.0,0.0,0.0,0.0,0,0,100,30.80,29.20,0,0,0,0.00
2014-4-18,0.0,0.0,0.0,0.0,0.0,0.0,0,0,100,30.03,29.20,0,0,0,0.00
2014-4-19,0.0,0.0,0.0,0.0,0.0,0.0,0,0,100,30.09,30.00,0,0,0,0.00
2014-4-20,0.0,0.0,0.0,0.0,0.0,0.0,0,0,100,30.03,29.88,0,0,0,0.00
2014-4-21,0.0,0.0,0.0,0.0,0.0,0.0,0,0,100,29.91,29.79,0,0,0,0.00
2014-4-22,0.0,0.0,0.0,0.0,0.0,0.0,0,0,100,29.88,29.74,0,0,0,0.00
2014-4-23,0.0,0.0,0.0,0.0,0.0,0.0,0,0,100,30.00,29.41,0,0,0,0.00
2014-4-24,0.0,0.0,0.0,0.0,0.0,0.0,0,0,100,30.09,29.44,0,0,0,0.00
2014-4-25,0.0,0.0,0.0,0.0,0.0,0.0,0,0,100,29.97,29.88,0,0,0,0.00
2014-4-26,0.0,0.0,0.0,0.0,0.0,0.0,0,0,100,30.09,29.85,0,0,0,0.00
2014-4-27,0.0,0.0,0.0,0.0,0.0,0.0,0,0,100,30.18,30.00,0,0,0,0.00
2014-4-28,0.0,0.0,0.0,0.0,0.0,0.0,0,0,100,30.00,29.88,0,0,0,0.00
2014-4-29,0.0,0.0,0.0,0.0,0.0,0.0,0,0,100,29.97,29.82,0,0,0,0.00
2014-4-30,0.0,0.0,0.0,0.0,0.0,0.0,0,0,100,29.97,29.88,0,0,0,0.00
2014-5-1,0.0,0.0,0.0,0.0,0.0,0.0,0,0,100,29.97,29.82,0,0,0,0.00
2014-5-2,0.0,0.0,0.0,0.0,0.0,0.0,0,0,100,29.88,29.76,0,0,0,0.00
2014-5-3,0.0,0.0,0.0,0.0,0.0,0.0,0,0,100,29.85,29.76,0,0,0,0.00
2014-5-4,0.0,0.0,0.0,0.0,0.0,0.0,0,0,100,30.03,29.65,0,0,0,0.00
2014-5-5,0.0,0.0,0.0,0.0,0.0,0.0,0,0,100,30.27,30.03,0,0,0,0.00
2014-5-6,0.0,0.0,0.0,0.0,0.0,0.0,0,0,100,30.18,29.85,0,0,0,0.00
2014-5-7,0.0,0.0,0.0,0.0,0.0,0.0,0,0,100,29.85,29.68,0,0,0,0.00
2014-5-8,0.0,0.0,0.0,0.0,0.0,0.0,0,0,100,29.71,29.65,0,0,0,0.00
2014-5-9,0.0,0.0,0.0,0.0,0.0,0.0,0,0,100,29.85,29.62,0,0,0,0.00
2014-5-10,0.0,0.0,0.0,0.0,0.0,0.0,0,0,100,29.97,29.85,0,0,0,0.00
2014-5-11,0.0,0.0,0.0,0.0,0.0,0.0,0,0,100,29.97,29.88,0,0,0,0.00
2014-5-12,0.0,0.0,0.0,0.0,0.0,0.0,0,0,100,30.03,29.88,0,0,0,0.00
2014-5-13,0.0,0.0,0.0,0.0,0.0,0.0,0,0,100,30.12,29.94,0,0,0,0.00
2014-5-14,0.0,0.0,0.0,0.0,0.0,0.0,0,0,100,30.12,29.85,0,0,0,0.00
2014-5-15,0.0,0.0,0.0,0.0,0.0,0.0,0,0,100,29.85,29.71,0,0,0,0.00
2014-5-22,0.0,0.0,0.0,0.0,0.0,0.0,0,0,100,29.85,29.29,0,0,0,0.00
2014-5-23,0.0,0.0,0.0,0.0,0.0,0.0,0,0,100,29.94,29.74,0,0,0,0.00
2014-5-24,0.0,0.0,0.0,0.0,0.0,0.0,0,0,100,29.79,29.65,0,0,0,0.00
2014-5-25,0.0,0.0,0.0,0.0,0.0,0.0,0,0,100,29.97,29.76,0,0,0,0.00
2014-5-26,0.0,0.0,0.0,0.0,0.0,0.0,0,0,100,29.94,29.85,0,0,0,0.00
2014-5-27,0.0,0.0,0.0,0.0,0.0,0.0,0,0,100,29.88,29.56,0,0,0,0.00
2014-5-28,0.0,0.0,0.0,0.0,0.0,0.0,0,0,100,29.82,29.50,0,0,0,0.00
2014-5-29,0.0,0.0,0.0,0.0,0.0,0.0,0,0,100,29.82,29.68,0,0,0,0.00
2014-5-30,0.0,0.0,0.0,0.0,0.0,0.0,0,0,100,29.97,29.68,0,0,0,0.00
2014-5-31,0.0,0.0,0.0,0.0,0.0,0.0,0,0,100,29.88,29.56,0,0,0,0.00
2014-6-1,0.0,0.0,0.0,0.0,0.0,0.0,0,0,100,29.85,29.56,0,0,0,0.00
2014-6-2,0.0,0.0,0.0,0.0,0.0,0.0,0,0,100,29.85,29.74,0,0,0,0.00
2014-6-3,0.0,0.0,0.0,0.0,0.0,0.0,0,0,100,29.76,29.50,0,0,0,0.00
2014-6-4,0.0,0.0,0.0,0.0,0.0,0.0,0,0,100,29.62,29.41,0,0,0,0.00
2014-6-5,0.0,0.0,0.0,0.0,0.0,0.0,0,0,100,30.09,29.62,0,0,0,0.00
2014-6-6,0.0,0.0,0.0,0.0,0.0,0.0,0,0,100,30.21,30.06,0,0,0,0.00
2014-6-7,0.0,0.0,0.0,0.0,0.0,0.0,0,0,100,30.12,29.32,0,0,0,0.00
2014-6-8,0.0,0.0,0.0,0.0,0.0,0.0,0,0,100,29.82,29.71,0,0,0,0.00
2014-6-9,0.0,0.0,0.0,0.0,0.0,0.0,0,0,100,30.03,29.76,0,0,0,0.00
2014-6-10,0.0,0.0,0.0,0.0,0.0,0.0,0,0,100,30.27,30.03,0,0,0,0.00
2014-6-11,0.0,0.0,0.0,0.0,0.0,0.0,0,0,100,30.24,30.09,0,0,0,0.00
2014-6-12,0.0,0.0,0.0,0.0,0.0,0.0,0,0,100,30.09,29.88,0,0,0,0.00
2014-6-13,0.0,0.0,0.0,0.0,0.0,0.0,0,0,100,29.88,29.59,0,0,0,0.00
2014-6-14,0.0,0.0,0.0,0.0,0.0,0.0,0,0,100,29.65,29.56,0,0,0,0.00
2014-6-15,0.0,0.0,0.0,0.0,0.0,0.0,0,0,100,29.97,29.38,0,0,0,0.00
2014-6-16,0.0,0.0,0.0,0.0,0.0,0.0,0,0,100,30.03,29.94,0,0,0,0.00
2014-6-17,0.0,0.0,0.0,0.0,0.0,0.0,0,0,100,30.00,29.82,0,0,0,0.00
2014-6-18,0.0,0.0,0.0,0.0,0.0,0.0,0,0,100,29.94,29.82,0,0,0,0.00
2014-6-19,0.0,0.0,0.0,0.0,0.0,0.0,0,0,100,30.33,29.94,0,0,0,0.00
2014-6-20,0.0,0.0,0.0,0.0,0.0,0.0,0,0,100,30.33,30.27,0,0,0,0.00
2014-6-21,0.0,0.0,0.0,0.0,0.0,0.0,0,0,100,30.30,30.09,0,0,0,0.00
2014-6-22,0.0,0.0,0.0,0.0,0.0,0.0,0,0,100,30.09,29.94,0,0,0,0.00
2014-6-23,0.0,0.0,0.0,0.0,0.0,0.0,0,0,100,30.06,29.88,0,0,0,0.00
2014-6-24,0.0,0.0,0.0,0.0,0.0,0.0,0,0,100,30.03,29.76,0,0,0,0.00
2014-6-25,0.0,0.0,0.0,0.0,0.0,0.0,0,0,100,29.76,29.68,0,0,0,0.00
2014-6-26,0.0,0.0,0.0,0.0,0.0,0.0,0,0,100,29.97,29.74,0,0,0,0.00
2014-6-27,0.0,0.0,0.0,0.0,0.0,0.0,0,0,100,30.18,29.97,0,0,0,0.00
2014-6-28,0.0,0.0,0.0,0.0,0.0,0.0,0,0,100,30.15,30.12,0,0,0,0.00
2014-6-29,0.0,0.0,0.0,0.0,0.0,0.0,0,0,100,30.06,29.88,0,0,0,0.00
2014-6-30,0.0,0.0,0.0,0.0,0.0,0.0,0,0,100,30.03,29.76,0,0,0,0.00
2014-7-1,0.0,0.0,0.0,0.0,0.0,0.0,0,0,100,29.97,29.74,0,0,0,0.00
2014-7-2,0.0,0.0,0.0,0.0,0.0,0.0,0,0,100,29.94,29.76,0,0,0,0.00
2014-7-3,0.0,0.0,0.0,0.0,0.0,0.0,0,0,100,29.88,29.29,0,0,0,0.17
2014-7-4,0.0,0.0,0.0,0.0,0.0,0.0,0,0,100,29.79,29.09,0,0,0,0.04
2014-7-5,0.0,0.0,0.0,0.0,0.0,0.0,0,0,100,30.00,29.68,0,0,0,0.09
2014-7-6,0.0,0.0,0.0,0.0,0.0,0.0,0,0,100,30.21,29.97,0,0,0,0.00
2014-7-7,0.0,0.0,0.0,0.0,0.0,0.0,0,0,100,30.36,30.18,0,0,0,0.00
2014-7-8,0.0,0.0,0.0,0.0,0.0,0.0,0,0,100,30.36,30.27,0,0,0,0.00
2014-7-9,0.0,0.0,0.0,0.0,0.0,0.0,0,0,100,30.36,30.24,0,0,0,0.00
2014-7-10,0.0,0.0,0.0,0.0,0.0,0.0,0,0,100,30.33,30.06,0,0,0,0.00
2014-7-11,0.0,0.0,0.0,0.0,0.0,0.0,0,0,100,30.06,29.85,0,0,0,0.00
2014-7-12,0.0,0.0,0.0,0.0,0.0,0.0,0,0,100,30.15,29.88,0,0,0,0.00
2014-7-13,0.0,0.0,0.0,0.0,0.0,0.0,0,0,100,30.24,30.06,0,0,0,0.00
2014-7-14,0.0,0.0,0.0,0.0,0.0,0.0,0,0,100,30.24,30.12,0,0,0,0.00
2014-7-15,0.0,0.0,0.0,0.0,0.0,0.0,0,0,100,30.15,29.88,0,0,0,0.00
2014-7-16,0.0,0.0,0.0,0.0,0.0,0.0,0,0,100,29.88,29.65,0,0,0,0.00
2014-7-17,0.0,0.0,0.0,0.0,0.0,0.0,0,0,100,29.76,29.53,0,0,0,0.08
2014-7-18,0.0,0.0,0.0,0.0,0.0,0.0,0,0,100,29.82,29.68,0,0,0,0.00
2014-7-19,0.0,0.0,0.0,0.0,0.0,0.0,0,0,100,30.18,29.82,0,0,0,0.00
2014-7-20,0.0,0.0,0.0,0.0,0.0,0.0,0,0,100,30.30,30.18,0,0,0,0.00
2014-7-21,0.0,0.0,0.0,0.0,0.0,0.0,0,0,100,30.27,30.00,0,0,0,0.00
2014-7-22,0.0,0.0,0.0,0.0,0.0,0.0,0,0,100,30.12,29.88,0,0,0,0.00
2014-7-23,0.0,0.0,0.0,0.0,0.0,0.0,0,0,100,30.12,29.91,0,0,0,0.00
2014-7-25,0.0,0.0,0.0,0.0,0.0,0.0,0,0,100,29.91,29.71,0,0,0,0.00
2014-7-26,0.0,0.0,0.0,0.0,0.0,0.0,0,0,100,30.03,29.82,0,0,0,0.00
2014-7-27,0.0,0.0,0.0,0.0,0.0,0.0,0,0,100,30.33,30.03,0,0,0,0.00
2014-7-28,0.0,0.0,0.0,0.0,0.0,0.0,0,0,100,30.44,30.30,0,0,0,0.00
2014-7-29,0.0,0.0,0.0,0.0,0.0,0.0,0,0,100,30.30,30.09,0,0,0,0.00
2014-7-30,0.0,0.0,0.0,0.0,0.0,0.0,0,0,100,30.09,29.94,0,0,0,0.00
2014-7-31,0.0,0.0,0.0,0.0,0.0,0.0,0,0,100,30.00,29.94,0,0,0,0.00
2014-8-1,0.0,0.0,0.0,0.0,0.0,0.0,0,0,100,30.00,29.88,0,0,0,0.00
2014-8-2,0.0,0.0,0.0,0.0,0.0,0.0,0,0,100,29.88,29.76,0,0,0,0.00
2014-8-3,0.0,0.0,0.0,0.0,0.0,0.0,0,0,100,29.94,29.85,0,0,0,0.00
2014-8-4,0.0,0.0,0.0,0.0,0.0,0.0,0,0,100,29.91,29.79,0,0,0,0.00
2014-8-5,0.0,0.0,0.0,0.0,0.0,0.0,0,0,100,29.94,29.85,0,0,0,0.04
2014-8-6,0.0,0.0,0.0,0.0,0.0,0.0,0,0,100,30.06,29.88,0,0,0,0.00
2014-8-7,0.0,0.0,0.0,0.0,0.0,0.0,0,0,100,30.18,30.06,0,0,0,0.00
2014-8-8,0.0,0.0,0.0,0.0,0.0,0.0,0,0,100,30.12,29.97,0,0,0,0.00
2014-8-9,0.0,0.0,0.0,0.0,0.0,0.0,0,0,100,30.15,29.94,0,0,0,0.00
2014-8-10,0.0,0.0,0.0,0.0,0.0,0.0,0,0,100,30.15,29.97,0,0,0,0.00
2014-8-11,0.0,0.0,0.0,0.0,0.0,0.0,0,0,100,30.00,29.91,0,0,0,0.00
2014-8-12,0.0,0.0,0.0,0.0,0.0,0.0,0,0,100,29.97,29.82,0,0,0,0.00
2014-8-13,0.0,0.0,0.0,0.0,0.0,0.0,0,0,100,29.88,29.82,0,0,0,0.00
2014-8-14,0.0,0.0,0.0,0.0,0.0,0.0,0,0,100,30.15,29.88,0,0,0,0.00
2014-8-15,0.0,0.0,0.0,0.0,0.0,0.0,0,0,100,30.30,30.15,0,0,0,0.00
2014-8-16,0.0,0.0,0.0,0.0,0.0,0.0,0,0,100,30.27,30.03,0,0,0,0.00
2014-8-17,0.0,0.0,0.0,0.0,0.0,0.0,0,0,100,30.03,29.74,0,0,0,0.12
2014-8-18,0.0,0.0,0.0,0.0,0.0,0.0,0,0,100,29.74,29.62,0,0,0,0.05
2014-8-19,0.0,0.0,0.0,0.0,0.0,0.0,0,0,100,29.82,29.71,0,0,0,0.00
2014-8-20,0.0,0.0,0.0,0.0,0.0,0.0,0,0,100,29.88,29.76,0,0,0,0.00
2014-8-21,0.0,0.0,0.0,0.0,0.0,0.0,0,0,100,29.88,29.79,0,0,0,0.04
2014-8-22,0.0,0.0,0.0,0.0,0.0,0.0,0,0,100,30.06,29.85,0,0,0,0.00
2014-8-23,0.0,0.0,0.0,0.0,0.0,0.0,0,0,100,30.09,29.97,0,0,0,0.00
2014-8-24,0.0,0.0,0.0,0.0,0.0,0.0,0,0,100,30.06,29.91,0,0,0,0.00
2014-8-25,0.0,0.0,0.0,0.0,0.0,0.0,0,0,100,29.91,29.71,0,0,0,0.00
2014-8-26,0.0,0.0,0.0,0.0,0.0,0.0,0,0,100,29.97,29.71,0,0,0,0.00
2014-8-27,0.0,0.0,0.0,0.0,0.0,0.0,0,0,100,29.74,29.62,0,0,0,0.04
2014-8-28,0.0,0.0,0.0,0.0,0.0,0.0,0,0,100,30.03,29.62,0,0,0,0.37
2014-8-29,0.0,0.0,0.0,0.0,0.0,0.0,0,0,100,30.33,30.00,0,0,0,0.09
2014-8-30,0.0,0.0,0.0,0.0,0.0,0.0,0,0,100,30.33,30.27,0,0,0,0.04
2014-8-31,0.0,0.0,0.0,0.0,0.0,0.0,0,0,100,30.18,30.06,0,0,0,0.00
2014-9-1,0.0,0.0,0.0,0.0,0.0,0.0,0,0,100,30.06,30.00,0,0,0,0.00
2014-9-2,0.0,0.0,0.0,0.0,0.0,0.0,0,0,100,30.00,29.85,0,0,0,0.00
2014-9-3,0.0,0.0,0.0,0.0,0.0,0.0,0,0,100,30.12,29.85,0,0,0,0.00
2014-9-4,0.0,0.0,0.0,0.0,0.0,0.0,0,0,100,30.12,29.79,0,0,0,0.00
2014-9-5,0.0,0.0,0.0,0.0,0.0,0.0,0,0,100,30.00,29.76,0,0,0,0.00
2014-9-6,0.0,0.0,0.0,0.0,0.0,0.0,0,0,100,30.06,29.88,0,0,0,0.00
2014-9-7,0.0,0.0,0.0,0.0,0.0,0.0,0,0,100,30.09,29.91,0,0,0,0.00
2014-9-8,0.0,0.0,0.0,0.0,0.0,0.0,0,0,100,30.15,30.06,0,0,0,0.00
2014-9-9,0.0,0.0,0.0,0.0,0.0,0.0,0,0,100,30.06,29.85,0,0,0,0.00
2014-9-10,0.0,0.0,0.0,0.0,0.0,0.0,0,0,100,29.94,29.88,0,0,0,0.00
2014-9-11,0.0,0.0,0.0,0.0,0.0,0.0,0,0,100,29.88,29.82,0,0,0,0.04
2014-9-12,0.0,0.0,0.0,0.0,0.0,0.0,0,0,100,30.03,29.88,0,0,0,0.17
2014-9-13,0.0,0.0,0.0,0.0,0.0,0.0,0,0,100,30.00,29.38,0,0,0,0.00
2014-9-14,0.0,0.0,0.0,0.0,0.0,0.0,0,0,100,29.97,29.79,0,0,0,0.00
2014-9-15,0.0,0.0,0.0,0.0,0.0,0.0,0,0,100,29.97,29.82,0,0,0,0.00
2014-9-16,0.0,0.0,0.0,0.0,0.0,0.0,0,0,100,29.94,29.79,0,0,0,0.00
2014-9-17,0.0,0.0,0.0,0.0,0.0,0.0,0,0,100,29.79,29.59,0,0,0,0.04
2014-9-18,0.0,0.0,0.0,0.0,0.0,0.0,0,0,100,29.91,29.56,0,0,0,0.00
2014-9-19,0.0,0.0,0.0,0.0,0.0,0.0,0,0,100,30.21,29.91,0,0,0,0.00
2014-9-20,0.0,0.0,0.0,0.0,0.0,0.0,0,0,100,30.21,30.09,0,0,0,0.00
2014-9-21,0.0,0.0,0.0,0.0,0.0,0.0,0,0,100,30.12,29.97,0,0,0,0.00
2014-9-22,0.0,0.0,0.0,0.0,0.0,0.0,0,0,100,29.97,29.74,0,0,0,0.00
2014-9-23,0.0,0.0,0.0,0.0,0.0,0.0,0,0,100,29.94,29.71,0,0,0,0.54
2014-9-24,0.0,0.0,0.0,0.0,0.0,0.0,0,0,100,29.91,29.79,0,0,0,0.00
2014-9-25,0.0,0.0,0.0,0.0,0.0,0.0,0,0,100,29.97,29.85,0,0,0,0.00
2014-9-26,0.0,0.0,0.0,0.0,0.0,0.0,0,0,100,29.97,29.85,0,0,0,0.08
2014-9-27,0.0,0.0,0.0,0.0,0.0,0.0,0,0,100,30.18,29.94,0,0,0,0.08
2014-9-28,0.0,0.0,0.0,0.0,0.0,0.0,0,0,100,30.18,29.94,0,0,0,0.09
2014-9-29,0.0,0.0,0.0,0.0,0.0,0.0,0,0,100,29.94,29.85,0,0,0,0.00
2014-9-30,0.0,0.0,0.0,0.0,0.0,0.0,0,0,100,30.15,29.88,0,0,0,0.08
2014-10-1,0.0,0.0,0.0,0.0,0.0,0.0,0,0,100,30.18,30.09,0,0,0,0.04
2014-10-2,0.0,0.0,0.0,0.0,0.0,0.0,0,0,100,30.15,30.06,0,0,0,0.00
2014-10-3,0.0,0.0,0.0,0.0,0.0,0.0,0,0,100,30.18,30.06,0,0,0,0.00
2014-10-4,0.0,0.0,0.0,0.0,0.0,0.0,0,0,100,30.18,30.03,0,0,0,0.00
2014-10-5,0.0,0.0,0.0,0.0,0.0,0.0,0,0,100,30.03,29.82,0,0,0,0.00
2014-10-6,0.0,0.0,0.0,0.0,0.0,0.0,0,0,100,29.85,29.74,0,0,0,0.00
2014-10-7,0.0,0.0,0.0,0.0,0.0,0.0,0,0,100,29.85,29.79,0,0,0,0.00
2014-10-8,0.0,0.0,0.0,0.0,0.0,0.0,0,0,100,29.91,29.74,0,0,0,0.09
2014-10-9,0.0,0.0,0.0,0.0,0.0,0.0,0,0,100,30.06,29.85,0,0,0,0.00
2014-10-10,0.0,0.0,0.0,0.0,0.0,0.0,0,0,100,30.12,29.97,0,0,0,0.00
2014-10-11,0.0,0.0,0.0,0.0,0.0,0.0,0,0,100,30.00,29.85,0,0,0,0.00
2014-10-12,0.0,0.0,0.0,0.0,0.0,0.0,0,0,100,30.12,29.94,0,0,0,0.04
2014-10-13,0.0,0.0,0.0,0.0,0.0,0.0,0,0,100,30.15,29.97,0,0,0,0.04
2014-10-14,0.0,0.0,0.0,0.0,0.0,0.0,0,0,100,29.97,29.71,0,0,0,0.00
2014-10-15,0.0,0.0,0.0,0.0,0.0,0.0,0,0,100,29.91,29.85,0,0,0,0.00
2014-10-16,0.0,0.0,0.0,0.0,0.0,0.0,0,0,100,30.15,29.82,0,0,0,0.08
2014-10-17,0.0,0.0,0.0,0.0,0.0,0.0,0,0,100,30.24,30.06,0,0,0,0.00
2014-10-18,0.0,0.0,0.0,0.0,0.0,0.0,0,0,100,30.06,29.85,0,0,0,0.00
2014-10-19,0.0,0.0,0.0,0.0,0.0,0.0,0,0,100,29.97,29.85,0,0,0,0.00
2014-10-20,0.0,0.0,0.0,0.0,0.0,0.0,0,0,100,29.97,29.38,18,1,19,0.00
2014-10-21,0.0,0.0,0.0,0.0,0.0,0.0,0,0,100,29.97,29.91,18,7,18,0.00
2014-10-22,0.0,0.0,0.0,0.0,0.0,0.0,0,0,100,29.94,29.79,14,3,14,0.00
2014-10-23,0.0,0.0,0.0,0.0,0.0,0.0,0,0,100,29.97,29.79,15,4,15,0.00
2014-10-24,0.0,0.0,0.0,0.0,0.0,0.0,0,0,100,30.12,29.91,9,2,9,0.00
2014-10-25,0.0,0.0,0.0,0.0,0.0,0.0,0,0,100,30.21,30.09,18,8,20,0.00
2014-10-26,0.0,0.0,0.0,0.0,0.0,0.0,0,0,100,30.18,29.91,22,9,22,0.00
2014-10-27,0.0,0.0,0.0,0.0,0.0,0.0,0,0,100,29.97,29.79,15,4,15,0.00
2014-10-28,0.0,0.0,0.0,0.0,0.0,0.0,0,0,100,29.97,29.82,13,2,13,0.00
2014-10-29,0.0,0.0,0.0,0.0,0.0,0.0,0,0,100,29.88,29.76,11,2,11,0.04
2014-10-30,0.0,0.0,0.0,0.0,0.0,0.0,0,0,100,30.18,29.85,25,6,25,0.00
2014-10-31,0.0,0.0,0.0,0.0,0.0,0.0,0,0,100,30.18,30.06,19,6,19,0.00
2014-11-1,0.0,0.0,0.0,0.0,0.0,0.0,0,0,100,30.06,29.91,23,11,23,0.00
2014-11-2,0.0,0.0,0.0,0.0,0.0,0.0,0,0,100,29.97,29.88,17,6,17,0.00
2014-11-3,0.0,0.0,0.0,0.0,0.0,0.0,0,0,100,29.94,29.79,18,5,20,0.37
2014-11-4,0.0,0.0,0.0,0.0,0.0,0.0,0,0,100,30.15,29.82,26,7,26,0.34
2014-11-5,0.0,0.0,0.0,0.0,0.0,0.0,0,0,100,30.24,30.12,15,5,15,0.00
2014-11-6,0.0,0.0,0.0,0.0,0.0,0.0,0,0,100,30.21,30.12,13,2,16,0.00
2014-11-7,0.0,0.0,0.0,0.0,0.0,0.0,0,0,100,30.15,29.85,23,7,23,0.00
2014-11-8,0.0,0.0,0.0,0.0,0.0,0.0,0,0,100,29.85,29.74,20,6,20,0.00
2014-11-9,0.0,0.0,0.0,0.0,0.0,0.0,0,0,100,29.97,29.79,13,5,15,0.00
2014-11-10,0.0,0.0,0.0,0.0,0.0,0.0,0,0,100,30.03,29.94,24,9,24,0.04
2014-11-11,0.0,0.0,0.0,0.0,0.0,0.0,0,0,100,29.97,29.65,21,8,23,0.00
2014-11-12,0.0,0.0,0.0,0.0,0.0,0.0,0,0,100,29.71,29.62,24,4,24,0.33
2014-11-13,0.0,0.0,0.0,0.0,0.0,0.0,0,0,100,29.97,29.68,23,9,26,0.04
2014-11-14,0.0,0.0,0.0,0.0,0.0,0.0,0,0,100,29.97,29.74,20,4,27,0.00
2014-11-15,0.0,0.0,0.0,0.0,0.0,0.0,0,0,100,30.27,29.88,35,13,38,0.38
2014-11-16,0.0,0.0,0.0,0.0,0.0,0.0,0,0,100,30.33,30.24,21,6,22,0.00
2014-11-17,0.0,0.0,0.0,0.0,0.0,0.0,0,0,100,30.30,30.24,10,4,11,0.00
2014-11-18,0.0,0.0,0.0,0.0,0.0,0.0,0,0,100,30.27,30.15,13,2,13,0.00
2014-11-19,0.0,0.0,0.0,0.0,0.0,0.0,0,0,100,30.15,30.00,13,3,15,0.00
2014-11-20,0.0,0.0,0.0,0.0,0.0,0.0,0,0,100,30.03,29.94,17,6,17,0.00
2014-11-21,0.0,0.0,0.0,0.0,0.0,0.0,0,0,100,30.03,29.97,11,2,11,0.00
2014-11-22,0.0,0.0,0.0,0.0,0.0,0.0,0,0,100,30.03,29.88,11,4,13,0.00
2014-11-23,0.0,0.0,0.0,0.0,0.0,0.0,0,0,100,30.06,29.85,8,2,9,0.08
2014-11-24,0.0,0.0,0.0,0.0,0.0,0.0,0,0,100,30.12,30.03,15,6,18,0.04
2014-11-25,0.0,0.0,0.0,0.0,0.0,0.0,0,0,100,30.12,29.88,20,9,20,0.00
2014-11-26,0.0,0.0,0.0,0.0,0.0,0.0,0,0,100,29.88,29.65,17,6,20,0.00
2014-11-27,0.0,0.0,0.0,0.0,0.0,0.0,0,0,100,29.94,29.68,26,7,29,0.00
2014-11-28,0.0,0.0,0.0,0.0,0.0,0.0,0,0,100,30.06,29.94,15,5,17,0.00
2014-11-29,0.0,0.0,0.0,0.0,0.0,0.0,0,0,100,30.06,30.00,15,4,15,0.00
2014-11-30,0.0,0.0,0.0,0.0,0.0,0.0,0,0,100,30.00,29.91,12,3,12,0.00
2014-12-1,0.0,0.0,0.0,0.0,0.0,0.0,0,0,100,30.06,29.94,22,6,23,0.00
2014-12-2,0.0,0.0,0.0,0.0,0.0,0.0,0,0,100,30.03,29.97,20,6,20,0.13
2014-12-3,0.0,0.0,0.0,0.0,0.0,0.0,0,0,100,30.03,29.91,18,6,20,0.12
2014-12-4,0.0,0.0,0.0,0.0,0.0,0.0,0,0,100,30.12,29.94,10,3,10,0.04
2014-12-5,0.0,0.0,0.0,0.0,0.0,0.0,0,0,100,30.15,30.09,14,4,14,0.00
2014-12-7,0.0,0.0,0.0,0.0,0.0,0.0,0,0,100,29.91,29.26,5,2,6,0.00
2014-12-8,0.0,0.0,0.0,0.0,0.0,0.0,0,0,100,29.91,29.12,11,2,13,0.00
2014-12-9,0.0,0.0,0.0,0.0,0.0,0.0,0,0,100,30.00,29.71,18,7,19,0.00
2014-12-10,0.0,0.0,0.0,0.0,0.0,0.0,0,0,100,30.03,29.97,11,2,11,0.00
2014-12-11,0.0,0.0,0.0,0.0,0.0,0.0,0,0,100,30.00,29.79,13,2,14,0.00
2014-12-12,0.0,0.0,0.0,0.0,0.0,0.0,0,0,100,30.12,29.82,21,9,24,0.00
2014-12-13,0.0,0.0,0.0,0.0,0.0,0.0,0,0,100,30.12,29.91,12,4,14,0.00
2014-12-14,0.0,0.0,0.0,0.0,0.0,0.0,0,0,100,30.03,29.88,19,6,20,0.08
2014-12-15,0.0,0.0,0.0,0.0,0.0,0.0,0,0,100,30.15,30.00,9,3,11,0.09
2014-12-16,0.0,0.0,0.0,0.0,0.0,0.0,0,0,100,30.12,30.06,12,2,12,0.00
2014-12-17,0.0,0.0,0.0,0.0,0.0,0.0,0,0,100,30.09,29.88,10,2,12,0.00
2014-12-18,0.0,0.0,0.0,0.0,0.0,0.0,0,0,100,29.94,29.88,20,8,20,0.00
2014-12-19,0.0,0.0,0.0,0.0,0.0,0.0,0,0,100,30.00,29.91,12,3,12,0.00
2014-12-20,0.0,0.0,0.0,0.0,0.0,0.0,0,0,100,30.00,29.94,23,8,24,0.00
2014-12-21,0.0,0.0,0.0,0.0,0.0,0.0,0,0,100,30.00,29.88,23,8,26,0.00
2014-12-22,0.0,0.0,0.0,0.0,0.0,0.0,0,0,100,30.00,29.91,11,3,13,0.00
2014-12-23,0.0,0.0,0.0,0.0,0.0,0.0,0,0,100,29.94,29.88,13,5,13,0.00